| time (UTC) | temp C | wind direction | speed KPH | gust KPH | rain 1hr cm | rain 24hr cm | rain mn cm | humidity % | barometer mb |
| 20260508013546 | 13 | 324 | 0.0 | 0.0 | 0.00 | 0.00 | 0.00 | 82 | 1014.7 |
| 20260508013034 | 13 | 324 | 0.0 | 0.0 | 0.00 | 0.00 | 0.00 | 82 | 1014.7 |
| 20260508012559 | 13 | 324 | 0.0 | 0.0 | 0.00 | 0.00 | 0.00 | 83 | 1014.7 |
| 20260508012030 | 13 | 324 | 0.0 | 0.0 | 0.00 | 0.00 | 0.00 | 82 | 1014.7 |
| 20260508011555 | 13 | 324 | 0.0 | 0.0 | 0.00 | 0.00 | 0.00 | 82 | 1014.7 |
| 20260508011044 | 13 | 324 | 0.0 | 0.0 | 0.00 | 0.00 | 0.00 | 83 | 1014.8 |
| 20260508010547 | 13 | 324 | 0.0 | 0.0 | 0.00 | 0.00 | 0.00 | 82 | 1014.8 |
| 20260508010040 | 13 | 324 | 0.0 | 0.0 | 0.00 | 0.00 | 0.00 | 83 | 1014.9 |
| 20260508005544 | 13 | 324 | 0.0 | 0.0 | 0.00 | 0.00 | 0.00 | 83 | 1014.8 |
| 20260508005101 | 13 | 324 | 0.0 | 0.0 | 0.00 | 0.00 | 0.00 | 83 | 1014.7 |
| 20260508004545 | 13 | 324 | 0.0 | 0.0 | 0.00 | 0.00 | 0.00 | 83 | 1014.8 |
| 20260508004037 | 13 | 324 | 0.0 | 0.0 | 0.00 | 0.00 | 0.00 | 84 | 1014.7 |
| 20260508003603 | 13 | 324 | 0.0 | 0.0 | 0.00 | 0.00 | 0.00 | 83 | 1014.7 |
| 20260508003055 | 13 | 324 | 0.0 | 0.0 | 0.00 | 0.00 | 0.00 | 82 | 1014.8 |
| 20260508002550 | 13 | 324 | 0.0 | 0.0 | 0.00 | 0.00 | 0.00 | 82 | 1014.9 |
| 20260508002038 | 13 | 324 | 0.0 | 0.0 | 0.00 | 0.00 | 0.00 | 83 | 1014.9 |
| 20260508001544 | 13 | 324 | 0.0 | 0.0 | 0.00 | 0.00 | 0.00 | 83 | 1014.9 |
| 20260508001054 | 13 | 324 | 0.0 | 0.0 | 0.00 | 0.00 | 0.00 | 83 | 1014.9 |
| 20260508000532 | 13 | 324 | 0.0 | 0.0 | 0.00 | 0.00 | 0.00 | 83 | 1015.1 |
| 20260508000040 | 14 | 324 | 0.0 | 0.0 | 0.00 | 0.00 | 0.00 | 82 | 1015.1 |
| 20260507235544 | 14 | 324 | 0.0 | 0.0 | 0.00 | 0.00 | 0.00 | 81 | 1015.1 |
| 20260507235033 | 13 | 324 | 0.0 | 0.0 | 0.00 | 0.00 | 0.00 | 81 | 1015.0 |
| 20260507234540 | 13 | 324 | 0.0 | 0.0 | 0.00 | 0.00 | 0.00 | 83 | 1015.0 |
| 20260507234039 | 13 | 324 | 0.0 | 0.0 | 0.00 | 0.00 | 0.00 | 84 | 1015.1 |
| 20260507233604 | 13 | 324 | 0.0 | 0.0 | 0.00 | 0.00 | 0.00 | 84 | 1015.1 |
| 20260507233053 | 13 | 324 | 0.0 | 0.0 | 0.00 | 0.00 | 0.00 | 83 | 1015.1 |
| 20260507232535 | 13 | 324 | 0.0 | 0.0 | 0.00 | 0.00 | 0.00 | 83 | 1015.1 |
| 20260507232048 | 13 | 324 | 0.0 | 0.0 | 0.00 | 0.00 | 0.00 | 83 | 1015.2 |
| 20260507231550 | 13 | 324 | 0.0 | 0.0 | 0.00 | 0.00 | 0.00 | 83 | 1015.2 |
| 20260507231039 | 13 | 324 | 0.0 | 0.0 | 0.00 | 0.00 | 0.00 | 83 | 1015.2 |
| 20260507230544 | 13 | 324 | 0.0 | 0.0 | 0.00 | 0.00 | 0.00 | 84 | 1015.2 |
| 20260507225545 | 13 | 324 | 0.0 | 0.0 | 0.00 | 0.00 | 0.00 | 84 | 1015.1 |
| 20260507225034 | 13 | 324 | 0.0 | 0.0 | 0.00 | 0.00 | 0.00 | 83 | 1015.1 |
| 20260507224537 | 13 | 324 | 0.0 | 0.0 | 0.00 | 0.00 | 0.00 | 82 | 1015.1 |
| 20260507224048 | 14 | 324 | 0.0 | 0.0 | 0.00 | 0.00 | 0.00 | 82 | 1014.9 |
| 20260507223542 | 14 | 324 | 0.0 | 0.0 | 0.00 | 0.00 | 0.00 | 82 | 1014.9 |
| 20260507223034 | 14 | 324 | 0.0 | 0.0 | 0.00 | 0.00 | 0.00 | 81 | 1015.0 |
| 20260507222538 | 14 | 324 | 0.0 | 0.0 | 0.00 | 0.00 | 0.00 | 81 | 1014.9 |
| 20260507222047 | 15 | 324 | 0.0 | 0.0 | 0.00 | 0.00 | 0.00 | 80 | 1014.9 |
| 20260507221550 | 15 | 324 | 0.0 | 0.0 | 0.00 | 0.00 | 0.00 | 79 | 1014.9 |
| 20260507221040 | 15 | 324 | 0.0 | 0.0 | 0.00 | 0.00 | 0.00 | 78 | 1014.9 |
| 20260507220543 | 15 | 324 | 0.0 | 3.2 | 0.00 | 0.00 | 0.00 | 76 | 1014.9 |
| 20260507220058 | 15 | 324 | 0.0 | 12.9 | 0.00 | 0.00 | 0.00 | 75 | 1014.8 |
| 20260507215530 | 15 | 329 | 6.4 | 12.9 | 0.00 | 0.10 | 0.00 | 76 | 1014.8 |
| 20260507215038 | 15 | 327 | 3.2 | 12.9 | 0.00 | 0.10 | 0.00 | 76 | 1014.8 |
| 20260507214602 | 15 | 320 | 4.8 | 12.9 | 0.00 | 0.10 | 0.00 | 77 | 1014.8 |
| 20260507214032 | 15 | 312 | 4.8 | 9.7 | 0.00 | 0.10 | 0.00 | 79 | 1014.8 |
| 20260507213534 | 15 | 297 | 1.6 | 6.4 | 0.00 | 0.10 | 0.00 | 80 | 1014.8 |
| 20260507213044 | 15 | 296 | 0.0 | 0.0 | 0.00 | 0.10 | 0.00 | 80 | 1014.7 |
| 20260507212540 | 15 | 297 | 0.0 | 3.2 | 0.00 | 0.10 | 0.00 | 79 | 1014.7 |
| 20260507212052 | 15 | 297 | 0.0 | 4.8 | 0.00 | 0.10 | 0.00 | 78 | 1014.7 |
| 20260507211543 | 15 | 296 | 1.6 | 4.8 | 0.00 | 0.10 | 0.00 | 76 | 1014.7 |
| 20260507211054 | 15 | 255 | 0.0 | 6.4 | 0.00 | 0.10 | 0.00 | 76 | 1014.7 |
| 20260507210538 | 15 | 246 | 1.6 | 6.4 | 0.00 | 0.10 | 0.00 | 76 | 1014.7 |
| 20260507210056 | 15 | 336 | 0.0 | 0.0 | 0.00 | 0.10 | 0.00 | 76 | 1014.7 |
| 20260507205530 | 15 | 336 | 0.0 | 0.0 | 0.00 | 0.10 | 0.00 | 76 | 1014.7 |
| 20260507205040 | 16 | 336 | 0.0 | 0.0 | 0.00 | 0.10 | 0.00 | 73 | 1014.6 |
| 20260507204604 | 16 | 336 | 0.0 | 0.0 | 0.00 | 0.10 | 0.00 | 74 | 1014.6 |
| 20260507204033 | 16 | 336 | 0.0 | 0.0 | 0.00 | 0.10 | 0.00 | 76 | 1014.5 |
| 20260507203538 | 16 | 336 | 0.0 | 0.0 | 0.00 | 0.10 | 0.00 | 75 | 1014.6 |
| 20260507203046 | 16 | 336 | 0.0 | 0.0 | 0.00 | 0.10 | 0.00 | 73 | 1014.6 |
| 20260507202541 | 16 | 336 | 0.0 | 0.0 | 0.00 | 0.10 | 0.00 | 72 | 1014.5 |
| 20260507202034 | 17 | 336 | 0.0 | 0.0 | 0.00 | 0.10 | 0.00 | 70 | 1014.4 |
| 20260507201539 | 17 | 336 | 0.0 | 0.0 | 0.00 | 0.10 | 0.00 | 68 | 1014.4 |
| 20260507201059 | 17 | 336 | 0.0 | 0.0 | 0.00 | 0.10 | 0.00 | 64 | 1014.3 |
| 20260507200543 | 17 | 336 | 0.0 | 0.0 | 0.00 | 0.10 | 0.00 | 63 | 1014.1 |
| 20260507200034 | 17 | 335 | 0.0 | 0.0 | 0.00 | 0.10 | 0.00 | 67 | 1014.0 |
| 20260507195536 | 16 | 331 | 0.0 | 0.0 | 0.00 | 0.10 | 0.00 | 70 | 1014.0 |
| 20260507195042 | 16 | 330 | 0.0 | 0.0 | 0.00 | 0.10 | 0.00 | 74 | 1014.1 |
| 20260507194545 | 16 | 330 | 0.0 | 0.0 | 0.00 | 0.10 | 0.00 | 75 | 1014.1 |
| 20260507194057 | 15 | 330 | 0.0 | 0.0 | 0.00 | 0.10 | 0.00 | 77 | 1014.0 |
| 20260507193540 | 15 | 330 | 0.0 | 0.0 | 0.00 | 0.10 | 0.00 | 77 | 1014.0 |
| 20260507193054 | 15 | 330 | 0.0 | 0.0 | 0.00 | 0.10 | 0.00 | 78 | 1013.9 |
| 20260507192538 | 16 | 330 | 0.0 | 0.0 | 0.00 | 0.10 | 0.00 | 78 | 1013.8 |
| 20260507192031 | 16 | 330 | 0.0 | 0.0 | 0.00 | 0.10 | 0.00 | 75 | 1013.7 |
| 20260507191535 | 15 | 330 | 0.0 | 0.0 | 0.00 | 0.10 | 0.00 | 76 | 1013.7 |
| 20260507191042 | 15 | 330 | 0.0 | 0.0 | 0.00 | 0.10 | 0.00 | 77 | 1013.6 |
| 20260507190547 | 16 | 330 | 0.0 | 0.0 | 0.00 | 0.10 | 0.00 | 78 | 1013.4 |
| 20260507190037 | 16 | 330 | 0.0 | 0.0 | 0.00 | 0.10 | 0.00 | 78 | 1013.4 |
| 20260507185602 | 16 | 330 | 0.0 | 0.0 | 0.00 | 0.10 | 0.00 | 76 | 1013.4 |
| 20260507185032 | 16 | 330 | 0.0 | 0.0 | 0.00 | 0.10 | 0.00 | 75 | 1013.3 |
| 20260507184538 | 16 | 331 | 0.0 | 0.0 | 0.00 | 0.10 | 0.00 | 75 | 1013.3 |
| 20260507184057 | 16 | 331 | 0.0 | 0.0 | 0.00 | 0.10 | 0.00 | 75 | 1013.2 |
| 20260507183533 | 16 | 331 | 0.0 | 0.0 | 0.00 | 0.10 | 0.00 | 75 | 1013.1 |
| 20260507183041 | 16 | 332 | 0.0 | 0.0 | 0.00 | 0.10 | 0.00 | 75 | 1013.1 |
| 20260507182607 | 16 | 332 | 0.0 | 0.0 | 0.00 | 0.10 | 0.00 | 75 | 1013.1 |
| 20260507182033 | 16 | 332 | 0.0 | 0.0 | 0.00 | 0.10 | 0.00 | 74 | 1013.0 |
| 20260507181559 | 16 | 332 | 0.0 | 0.0 | 0.00 | 0.10 | 0.00 | 74 | 1013.0 |
| 20260507181039 | 16 | 332 | 0.0 | 0.0 | 0.00 | 0.10 | 0.00 | 73 | 1013.0 |
| 20260507180605 | 16 | 332 | 0.0 | 0.0 | 0.00 | 0.10 | 0.00 | 72 | 1012.9 |
| 20260507180036 | 16 | 332 | 0.0 | 0.0 | 0.00 | 0.10 | 0.00 | 72 | 1012.9 |
| 20260507175540 | 16 | 332 | 0.0 | 0.0 | 0.00 | 0.20 | 0.00 | 70 | 1012.9 |
| 20260507175031 | 17 | 332 | 0.0 | 0.0 | 0.00 | 0.20 | 0.00 | 71 | 1012.9 |
| 20260507174534 | 17 | 332 | 0.0 | 0.0 | 0.00 | 0.20 | 0.00 | 70 | 1012.8 |
| 20260507174039 | 17 | 332 | 0.0 | 0.0 | 0.00 | 0.20 | 0.00 | 70 | 1012.8 |
| 20260507173544 | 17 | 332 | 0.0 | 0.0 | 0.00 | 0.20 | 0.00 | 68 | 1012.8 |
| 20260507173032 | 18 | 332 | 0.0 | 0.0 | 0.00 | 0.20 | 0.00 | 67 | 1012.8 |
| 20260507172557 | 18 | 332 | 0.0 | 0.0 | 0.00 | 0.20 | 0.00 | 66 | 1012.7 |
| 20260507172117 | 18 | 332 | 0.0 | 0.0 | 0.00 | 0.20 | 0.00 | 65 | 1012.7 |
| 20260507171531 | 18 | 332 | 0.0 | 0.0 | 0.00 | 0.20 | 0.00 | 65 | 1012.7 |
| 20260507171041 | 19 | 332 | 0.0 | 0.0 | 0.00 | 0.20 | 0.00 | 63 | 1012.7 |
| 20260507170546 | 19 | 332 | 0.0 | 0.0 | 0.00 | 0.20 | 0.00 | 62 | 1012.7 |
| 20260507170034 | 19 | 332 | 0.0 | 0.0 | 0.00 | 0.20 | 0.00 | 64 | 1012.7 |
| 20260507165537 | 19 | 170 | 0.0 | 0.0 | 0.00 | 0.20 | 0.00 | 64 | 1012.7 |
| 20260507165118 | 20 | 170 | 0.0 | 0.0 | 0.00 | 0.20 | 0.00 | 63 | 1012.7 |
| 20260507164533 | 20 | 170 | 0.0 | 0.0 | 0.00 | 0.20 | 0.00 | 61 | 1012.7 |
| 20260507164043 | 20 | 168 | 0.0 | 0.0 | 0.00 | 0.20 | 0.00 | 60 | 1012.6 |
| 20260507163611 | 20 | 136 | 0.0 | 0.0 | 0.00 | 0.20 | 0.00 | 56 | 1012.7 |
| 20260507163040 | 20 | 136 | 0.0 | 3.2 | 0.00 | 0.20 | 0.00 | 53 | 1012.6 |
| 20260507162544 | 20 | 136 | 0.0 | 3.2 | 0.00 | 0.20 | 0.00 | 52 | 1012.6 |
| 20260507162056 | 20 | 63 | 0.0 | 1.6 | 0.00 | 0.20 | 0.00 | 53 | 1012.6 |
| 20260507161531 | 20 | 93 | 0.0 | 0.0 | 0.00 | 0.20 | 0.00 | 52 | 1012.6 |
| 20260507161032 | 20 | 50 | 0.0 | 0.0 | 0.00 | 0.20 | 0.00 | 53 | 1012.5 |
| 20260507160538 | 20 | 102 | 0.0 | 4.8 | 0.00 | 0.20 | 0.00 | 56 | 1012.4 |
| 20260507160056 | 20 | 87 | 0.0 | 4.8 | 0.00 | 0.20 | 0.00 | 54 | 1012.4 |
| 20260507155531 | 20 | 122 | 0.0 | 3.2 | 0.00 | 0.30 | 0.00 | 54 | 1012.5 |
| 20260507155037 | 20 | 171 | 0.0 | 0.0 | 0.00 | 0.30 | 0.00 | 54 | 1012.4 |
| 20260507154539 | 20 | 47 | 0.0 | 1.6 | 0.00 | 0.30 | 0.00 | 55 | 1012.5 |
| 20260507154050 | 20 | 152 | 0.0 | 0.0 | 0.00 | 0.30 | 0.00 | 56 | 1012.5 |
| 20260507153534 | 20 | 152 | 0.0 | 3.2 | 0.00 | 0.30 | 0.00 | 55 | 1012.4 |
| 20260507153105 | 20 | 73 | 0.0 | 6.4 | 0.00 | 0.30 | 0.00 | 55 | 1012.4 |
| 20260507152550 | 20 | 100 | 3.2 | 9.7 | 0.00 | 0.30 | 0.00 | 55 | 1012.4 |
| 20260507152038 | 20 | 103 | 3.2 | 9.7 | 0.00 | 0.30 | 0.00 | 55 | 1012.5 |
| 20260507151540 | 20 | 131 | 1.6 | 6.4 | 0.00 | 0.30 | 0.00 | 57 | 1012.5 |
| 20260507151059 | 20 | 122 | 1.6 | 8.0 | 0.00 | 0.30 | 0.00 | 56 | 1012.5 |
| 20260507150541 | 20 | 140 | 0.0 | 8.0 | 0.00 | 0.30 | 0.00 | 57 | 1012.6 |
| 20260507150101 | 20 | 133 | 3.2 | 8.0 | 0.00 | 0.30 | 0.00 | 57 | 1012.7 |
| 20260507145543 | 20 | 92 | 0.0 | 6.4 | 0.00 | 5.99 | 0.00 | 57 | 1012.6 |
| 20260507145058 | 20 | 129 | 1.6 | 11.3 | 0.00 | 5.99 | 0.00 | 57 | 1012.6 |
| 20260507144541 | 20 | 150 | 6.4 | 12.9 | 0.00 | 5.99 | 0.00 | 60 | 1012.7 |
| 20260507144032 | 20 | 125 | 4.8 | 11.3 | 0.00 | 5.99 | 0.00 | 58 | 1012.8 |
| 20260507143539 | 20 | 129 | 0.0 | 6.4 | 0.00 | 5.99 | 0.00 | 59 | 1012.8 |
| 20260507143031 | 20 | 139 | 3.2 | 8.0 | 0.00 | 5.99 | 0.00 | 59 | 1012.8 |
| 20260507142537 | 20 | 139 | 0.0 | 14.5 | 0.00 | 5.99 | 0.00 | 57 | 1012.8 |
| 20260507142048 | 20 | 123 | 1.6 | 14.5 | 0.00 | 5.99 | 0.00 | 58 | 1012.8 |
| 20260507141549 | 20 | 161 | 0.0 | 14.5 | 0.00 | 5.99 | 0.00 | 60 | 1012.8 |
| 20260507140044 | 20 | 97 | 0.0 | 4.8 | 0.00 | 5.99 | 0.00 | 58 | 1012.9 |
| 20260507135551 | 20 | 158 | 0.0 | 3.2 | 0.00 | 5.99 | 0.00 | 60 | 1012.9 |
| 20260507135041 | 19 | 111 | 0.0 | 12.9 | 0.00 | 5.99 | 0.00 | 60 | 1013.0 |
| 20260507134536 | 19 | 139 | 6.4 | 12.9 | 0.00 | 5.99 | 0.00 | 58 | 1013.0 |
| 20260507134117 | 20 | 149 | 6.4 | 12.9 | 0.00 | 5.99 | 0.00 | 60 | 1013.1 |
| 20260507133533 | 20 | 149 | 6.4 | 12.9 | 0.00 | 5.99 | 0.00 | 58 | 1013.2 |
| 20260507133040 | 20 | 14 | 0.0 | 8.0 | 0.00 | 5.99 | 0.00 | 60 | 1013.2 |
| 20260507132544 | 20 | 183 | 1.6 | 8.0 | 0.00 | 5.99 | 0.00 | 61 | 1013.2 |
| 20260507132037 | 20 | 66 | 0.0 | 0.0 | 0.00 | 5.99 | 0.00 | 62 | 1013.3 |
| 20260507131538 | 19 | 348 | 0.0 | 1.6 | 0.00 | 5.99 | 0.00 | 63 | 1013.4 |
| 20260507131033 | 18 | 348 | 0.0 | 1.6 | 0.00 | 5.99 | 0.00 | 64 | 1013.4 |
| 20260507130538 | 18 | 153 | 0.0 | 0.0 | 0.00 | 5.99 | 0.00 | 62 | 1013.4 |
| 20260507130055 | 18 | 153 | 0.0 | 0.0 | 0.00 | 5.99 | 0.00 | 64 | 1013.4 |
| 20260507125536 | 18 | 153 | 0.0 | 0.0 | 0.00 | 5.99 | 0.00 | 65 | 1013.5 |
| 20260507125043 | 18 | 154 | 0.0 | 0.0 | 0.00 | 5.99 | 0.00 | 65 | 1013.5 |
| 20260507124545 | 18 | 139 | 0.0 | 0.0 | 0.00 | 5.99 | 0.00 | 64 | 1013.6 |
| 20260507124034 | 18 | 295 | 0.0 | 0.0 | 0.00 | 5.99 | 0.00 | 64 | 1013.6 |
| 20260507123540 | 18 | 295 | 0.0 | 0.0 | 0.00 | 5.99 | 0.00 | 64 | 1013.7 |
| 20260507123052 | 18 | 295 | 0.0 | 0.0 | 0.00 | 5.99 | 0.00 | 64 | 1013.7 |
| 20260507122535 | 18 | 295 | 0.0 | 0.0 | 0.00 | 5.99 | 0.00 | 65 | 1013.6 |
| 20260507122038 | 18 | 295 | 0.0 | 0.0 | 0.00 | 5.99 | 0.00 | 66 | 1013.7 |
| 20260507121539 | 18 | 295 | 0.0 | 0.0 | 0.00 | 5.99 | 0.00 | 66 | 1013.8 |
| 20260507121056 | 18 | 295 | 0.0 | 0.0 | 0.00 | 5.99 | 0.00 | 66 | 1013.8 |
| 20260507120540 | 18 | 295 | 0.0 | 0.0 | 0.00 | 5.99 | 0.00 | 66 | 1013.9 |
| 20260507120030 | 18 | 163 | 0.0 | 0.0 | 0.00 | 5.99 | 0.00 | 68 | 1013.9 |
| 20260507115553 | 18 | 163 | 0.0 | 0.0 | 0.00 | 5.99 | 0.00 | 67 | 1013.9 |
| 20260507115041 | 18 | 163 | 0.0 | 0.0 | 0.00 | 5.99 | 0.00 | 68 | 1013.9 |
| 20260507114536 | 17 | 163 | 0.0 | 0.0 | 0.00 | 5.99 | 0.00 | 68 | 1014.0 |
| 20260507114043 | 17 | 163 | 0.0 | 0.0 | 0.00 | 5.99 | 0.00 | 69 | 1014.0 |
| 20260507113609 | 17 | 163 | 0.0 | 8.0 | 0.00 | 5.99 | 0.00 | 69 | 1014.0 |
| 20260507113037 | 17 | 168 | 1.6 | 8.0 | 0.00 | 5.99 | 0.00 | 67 | 1014.0 |
| 20260507112542 | 18 | 189 | 0.0 | 6.4 | 0.00 | 5.99 | 0.00 | 66 | 1014.1 |
| 20260507112033 | 18 | 173 | 0.0 | 17.7 | 0.00 | 5.99 | 0.00 | 66 | 1014.1 |
| 20260507111535 | 18 | 121 | 8.0 | 17.7 | 0.00 | 5.99 | 0.00 | 64 | 1014.1 |
| 20260507111055 | 18 | 193 | 0.0 | 16.1 | 0.00 | 5.99 | 0.00 | 66 | 1014.2 |
| 20260507110531 | 18 | 135 | 9.7 | 16.1 | 0.00 | 5.99 | 0.00 | 64 | 1014.2 |
| 20260507110043 | 18 | 147 | 1.6 | 14.5 | 0.00 | 5.99 | 0.00 | 64 | 1014.3 |
| 20260507105607 | 18 | 178 | 0.0 | 14.5 | 0.00 | 5.99 | 0.00 | 65 | 1014.3 |
| 20260507105038 | 18 | 174 | 1.6 | 16.1 | 0.00 | 5.99 | 0.00 | 66 | 1014.3 |
| 20260507104535 | 18 | 137 | 8.0 | 12.9 | 0.00 | 5.99 | 0.00 | 65 | 1014.2 |
| 20260507104044 | 18 | 106 | 1.6 | 14.5 | 0.00 | 5.99 | 0.00 | 66 | 1014.3 |
| 20260507103549 | 18 | 152 | 8.0 | 14.5 | 0.00 | 5.99 | 0.00 | 66 | 1014.3 |
| 20260507103039 | 18 | 150 | 3.2 | 11.3 | 0.00 | 5.99 | 0.00 | 65 | 1014.4 |
| 20260507102534 | 18 | 354 | 0.0 | 16.1 | 0.00 | 5.99 | 0.00 | 62 | 1014.5 |
| 20260507102044 | 18 | 152 | 6.4 | 16.1 | 0.00 | 5.99 | 0.00 | 65 | 1014.5 |
| 20260507101546 | 18 | 127 | 0.0 | 11.3 | 0.00 | 5.99 | 0.00 | 67 | 1014.5 |
| 20260507101036 | 18 | 135 | 1.6 | 11.3 | 0.00 | 5.99 | 0.00 | 67 | 1014.5 |
| 20260507100554 | 18 | 135 | 8.0 | 11.3 | 0.00 | 5.99 | 0.00 | 66 | 1014.5 |
| 20260507100042 | 18 | 125 | 1.6 | 8.0 | 0.00 | 5.99 | 0.00 | 67 | 1014.5 |
| 20260507095546 | 17 | 147 | 4.8 | 8.0 | 0.00 | 6.10 | 0.00 | 68 | 1014.5 |
| 20260507095056 | 17 | 128 | 0.0 | 6.4 | 0.00 | 6.10 | 0.00 | 70 | 1014.5 |
| 20260507094531 | 17 | 133 | 3.2 | 14.5 | 0.00 | 6.10 | 0.00 | 70 | 1014.5 |
| 20260507094040 | 17 | 155 | 3.2 | 14.5 | 0.00 | 6.10 | 0.00 | 67 | 1014.5 |
| 20260507093543 | 17 | 146 | 6.4 | 12.9 | 0.00 | 6.10 | 0.00 | 67 | 1014.5 |
| 20260507093031 | 17 | 71 | 0.0 | 12.9 | 0.00 | 6.10 | 0.00 | 67 | 1014.5 |
| 20260507092535 | 17 | 79 | 0.0 | 12.9 | 0.00 | 6.10 | 0.00 | 66 | 1014.5 |
| 20260507092042 | 17 | 160 | 4.8 | 9.7 | 0.00 | 6.10 | 0.00 | 69 | 1014.5 |
| 20260507091543 | 17 | 139 | 0.0 | 6.4 | 0.00 | 6.10 | 0.00 | 70 | 1014.5 |
| 20260507091034 | 16 | 120 | 0.0 | 11.3 | 0.00 | 6.10 | 0.00 | 67 | 1014.5 |
| 20260507090537 | 16 | 167 | 0.0 | 11.3 | 0.00 | 6.10 | 0.00 | 68 | 1014.4 |
| 20260507090101 | 16 | 168 | 6.4 | 11.3 | 0.00 | 6.10 | 0.00 | 67 | 1014.4 |
| 20260507085543 | 16 | 180 | 3.2 | 11.3 | 0.00 | 8.99 | 0.00 | 69 | 1014.3 |
| 20260507085034 | 16 | 124 | 0.0 | 14.5 | 0.00 | 8.99 | 0.00 | 70 | 1014.4 |
| 20260507084537 | 16 | 170 | 4.8 | 14.5 | 0.00 | 8.99 | 0.00 | 70 | 1014.4 |
| 20260507084041 | 16 | 133 | 0.0 | 11.3 | 0.00 | 8.99 | 0.00 | 72 | 1014.4 |
| 20260507083602 | 16 | 145 | 3.2 | 11.3 | 0.00 | 8.99 | 0.00 | 69 | 1014.4 |
| 20260507083048 | 16 | 175 | 0.0 | 9.7 | 0.00 | 8.99 | 0.00 | 71 | 1014.3 |
| 20260507082550 | 16 | 135 | 4.8 | 6.4 | 0.00 | 8.99 | 0.00 | 71 | 1014.3 |
| 20260507082041 | 15 | 116 | 3.2 | 9.7 | 0.00 | 8.99 | 0.00 | 70 | 1014.3 |
| 20260507081543 | 15 | 154 | 0.0 | 9.7 | 0.00 | 8.99 | 0.00 | 69 | 1014.3 |
| 20260507081101 | 15 | 125 | 0.0 | 4.8 | 0.00 | 8.99 | 0.00 | 70 | 1014.3 |
| 20260507080541 | 15 | 73 | 0.0 | 4.8 | 0.00 | 8.99 | 0.00 | 73 | 1014.3 |
| 20260507080032 | 15 | 140 | 1.6 | 9.7 | 0.00 | 8.99 | 0.00 | 74 | 1014.3 |
| 20260507075531 | 14 | 105 | 0.0 | 9.7 | 0.00 | 12.29 | 0.00 | 76 | 1014.3 |
| 20260507075044 | 14 | 148 | 3.2 | 8.0 | 0.00 | 12.29 | 0.00 | 76 | 1014.3 |
| 20260507074547 | 14 | 139 | 1.6 | 6.4 | 0.00 | 12.29 | 0.00 | 79 | 1014.3 |
| 20260507074042 | 14 | 139 | 3.2 | 6.4 | 0.00 | 12.29 | 0.00 | 80 | 1014.2 |
| 20260507073546 | 14 | 139 | 1.6 | 4.8 | 0.00 | 12.29 | 0.00 | 82 | 1014.3 |
| 20260507073104 | 14 | 139 | 0.0 | 0.0 | 0.00 | 12.29 | 0.00 | 81 | 1014.3 |
| 20260507072547 | 13 | 137 | 0.0 | 0.0 | 0.00 | 12.29 | 0.00 | 83 | 1014.2 |
| 20260507072039 | 13 | 137 | 0.0 | 0.0 | 0.00 | 12.29 | 0.00 | 85 | 1014.2 |
| 20260507071539 | 13 | 137 | 0.0 | 0.0 | 0.00 | 12.29 | 0.00 | 85 | 1014.2 |
| 20260507071057 | 13 | 138 | 0.0 | 0.0 | 0.00 | 12.29 | 0.00 | 85 | 1014.1 |
| 20260507070540 | 13 | 159 | 0.0 | 0.0 | 0.00 | 12.29 | 0.00 | 87 | 1014.1 |
| 20260507070058 | 13 | 159 | 0.0 | 0.0 | 0.00 | 12.29 | 0.00 | 88 | 1014.0 |
| 20260507065533 | 13 | 160 | 0.0 | 1.6 | 0.00 | 17.40 | 0.00 | 87 | 1013.9 |
| 20260507065038 | 13 | 354 | 0.0 | 1.6 | 0.00 | 17.40 | 0.00 | 87 | 1013.9 |
| 20260507064542 | 13 | 347 | 0.0 | 0.0 | 0.00 | 17.40 | 0.00 | 88 | 1014.0 |
| 20260507064030 | 13 | 347 | 0.0 | 0.0 | 0.00 | 17.40 | 0.00 | 89 | 1013.9 |
| 20260507063534 | 13 | 347 | 0.0 | 0.0 | 0.00 | 17.40 | 0.00 | 90 | 1013.9 |
| 20260507063106 | 13 | 347 | 0.0 | 0.0 | 0.00 | 17.40 | 0.00 | 90 | 1013.9 |
| 20260507062550 | 13 | 347 | 0.0 | 0.0 | 0.00 | 17.40 | 0.00 | 91 | 1013.9 |
| 20260507062107 | 12 | 347 | 0.0 | 0.0 | 0.00 | 17.40 | 0.00 | 92 | 1013.9 |
| 20260507061610 | 12 | 347 | 0.0 | 0.0 | 0.00 | 17.40 | 0.00 | 92 | 1013.8 |
| 20260507061107 | 12 | 347 | 0.0 | 0.0 | 0.00 | 17.40 | 0.00 | 93 | 1013.8 |
| 20260507060550 | 12 | 347 | 0.0 | 0.0 | 0.00 | 17.40 | 0.00 | 93 | 1013.8 |
| 20260507055545 | 12 | 347 | 0.0 | 0.0 | 0.00 | 17.70 | 0.00 | 93 | 1013.7 |
| 20260507055035 | 12 | 347 | 0.0 | 0.0 | 0.00 | 17.70 | 0.00 | 94 | 1013.7 |
| 20260507054539 | 11 | 347 | 0.0 | 0.0 | 0.00 | 17.70 | 0.00 | 94 | 1013.6 |
| 20260507054058 | 11 | 347 | 0.0 | 0.0 | 0.00 | 17.70 | 0.00 | 95 | 1013.6 |
| 20260507053533 | 11 | 347 | 0.0 | 0.0 | 0.00 | 17.70 | 0.00 | 95 | 1013.5 |
| 20260507053109 | 11 | 347 | 0.0 | 0.0 | 0.00 | 17.70 | 0.00 | 95 | 1013.4 |
| 20260507052609 | 11 | 347 | 0.0 | 0.0 | 0.00 | 17.70 | 0.00 | 95 | 1013.3 |
| 20260507052035 | 11 | 347 | 0.0 | 0.0 | 0.00 | 17.70 | 0.00 | 95 | 1013.3 |
| 20260507051538 | 10 | 347 | 0.0 | 0.0 | 0.00 | 17.70 | 0.00 | 95 | 1013.3 |
| 20260507051049 | 10 | 347 | 0.0 | 0.0 | 0.00 | 17.70 | 0.00 | 95 | 1013.2 |
| 20260507050551 | 10 | 347 | 0.0 | 0.0 | 0.00 | 17.70 | 0.00 | 95 | 1013.2 |
| 20260507050045 | 10 | 347 | 0.0 | 0.0 | 0.00 | 17.70 | 0.00 | 95 | 1013.0 |
| 20260507045546 | 10 | 347 | 0.0 | 0.0 | 0.00 | 18.80 | 0.00 | 95 | 1012.9 |
| 20260507045057 | 10 | 347 | 0.0 | 0.0 | 0.00 | 18.80 | 0.00 | 95 | 1012.9 |
| 20260507044531 | 10 | 347 | 0.0 | 0.0 | 0.00 | 18.80 | 0.00 | 95 | 1012.9 |
| 20260507044105 | 10 | 347 | 0.0 | 0.0 | 0.00 | 18.80 | 0.00 | 95 | 1012.8 |
| 20260507043608 | 10 | 347 | 0.0 | 0.0 | 0.00 | 18.80 | 0.00 | 95 | 1012.7 |
| 20260507043106 | 10 | 347 | 0.0 | 0.0 | 0.00 | 18.80 | 0.00 | 95 | 1012.7 |
| 20260507042607 | 10 | 347 | 0.0 | 0.0 | 0.00 | 18.80 | 0.00 | 95 | 1012.6 |
| 20260507042043 | 10 | 347 | 0.0 | 0.0 | 0.00 | 18.80 | 0.00 | 95 | 1012.5 |
| 20260507041548 | 10 | 347 | 0.0 | 0.0 | 0.00 | 18.80 | 0.00 | 95 | 1012.5 |
| 20260507041039 | 10 | 347 | 0.0 | 0.0 | 0.00 | 18.80 | 0.00 | 94 | 1012.5 |
| 20260507040600 | 10 | 347 | 0.0 | 0.0 | 0.00 | 18.80 | 0.00 | 94 | 1012.5 |
| 20260507040058 | 10 | 347 | 0.0 | 0.0 | 0.00 | 18.80 | 0.00 | 94 | 1012.6 |
| 20260507035531 | 10 | 347 | 0.0 | 0.0 | 0.00 | 19.00 | 0.00 | 94 | 1012.5 |
| 20260507035042 | 10 | 347 | 0.0 | 0.0 | 0.00 | 19.00 | 0.00 | 94 | 1012.5 |
| 20260507034544 | 10 | 347 | 0.0 | 0.0 | 0.00 | 19.00 | 0.00 | 94 | 1012.4 |
| 20260507034035 | 10 | 347 | 0.0 | 0.0 | 0.00 | 19.00 | 0.00 | 94 | 1012.4 |
| 20260507033541 | 10 | 347 | 0.0 | 0.0 | 0.00 | 19.00 | 0.00 | 94 | 1012.3 |
| 20260507033118 | 10 | 347 | 0.0 | 0.0 | 0.00 | 19.00 | 0.00 | 94 | 1012.3 |
| 20260507032533 | 10 | 347 | 0.0 | 0.0 | 0.00 | 19.00 | 0.00 | 94 | 1012.3 |
| 20260507032038 | 10 | 347 | 0.0 | 0.0 | 0.00 | 19.00 | 0.00 | 94 | 1012.3 |
| 20260507031603 | 10 | 347 | 0.0 | 0.0 | 0.00 | 19.00 | 0.00 | 94 | 1012.3 |
| 20260507031034 | 10 | 347 | 0.0 | 0.0 | 0.00 | 19.00 | 0.00 | 94 | 1012.3 |
| 20260507030538 | 10 | 347 | 0.0 | 0.0 | 0.00 | 19.00 | 0.00 | 94 | 1012.4 |
| 20260507030035 | 10 | 347 | 0.0 | 0.0 | 0.00 | 19.00 | 0.00 | 94 | 1012.3 |
| 20260507025542 | 10 | 347 | 0.0 | 0.0 | 0.00 | 19.00 | 0.00 | 94 | 1012.4 |
| 20260507025032 | 10 | 347 | 0.0 | 0.0 | 0.00 | 19.00 | 0.00 | 94 | 1012.4 |
| 20260507024538 | 10 | 347 | 0.0 | 0.0 | 0.00 | 19.00 | 0.00 | 94 | 1012.3 |
| 20260507024043 | 11 | 347 | 0.0 | 0.0 | 0.00 | 19.00 | 0.00 | 94 | 1012.4 |
| 20260507023550 | 11 | 347 | 0.0 | 0.0 | 0.00 | 19.00 | 0.00 | 93 | 1012.4 |
| 20260507023039 | 11 | 347 | 0.0 | 0.0 | 0.00 | 19.00 | 0.00 | 93 | 1012.3 |
| 20260507022541 | 11 | 347 | 0.0 | 0.0 | 0.00 | 19.00 | 0.00 | 93 | 1012.3 |
| 20260507022055 | 11 | 347 | 0.0 | 0.0 | 0.00 | 19.00 | 0.00 | 93 | 1012.3 |
| 20260507021531 | 11 | 347 | 0.0 | 0.0 | 0.00 | 19.00 | 0.00 | 93 | 1012.3 |
| 20260507021042 | 11 | 347 | 0.0 | 0.0 | 0.00 | 19.00 | 0.00 | 93 | 1012.3 |
| 20260507020544 | 11 | 347 | 0.0 | 0.0 | 0.00 | 19.00 | 0.00 | 93 | 1012.3 |
| 20260507020037 | 11 | 347 | 0.0 | 0.0 | 0.00 | 19.00 | 0.00 | 93 | 1012.3 |
| 20260507015538 | 11 | 347 | 0.0 | 0.0 | 0.00 | 19.20 | 0.00 | 93 | 1012.3 |
| 20260507015031 | 11 | 347 | 0.0 | 0.0 | 0.00 | 19.20 | 0.00 | 93 | 1012.3 |
| 20260507014551 | 11 | 347 | 0.0 | 0.0 | 0.00 | 19.20 | 0.00 | 94 | 1012.2 |